Regional Weather Roundup
Issued by NWS

Home | Current Version | Previous Version | Graphics & Text | Print | Product List | Glossary On
Versions: 1 2 3 4 5 6 7 8 9 10 11 12 13 14 15 16 17 18 19 20 21 22 23 24 25 26 27 28
000
ASUS45 KSLC 261110
RWRUT

UTAH REGIONAL WEATHER ROUNDUP
NATIONAL WEATHER SERVICE SALT LAKE CITY UT
500 AM MDT SUN MAR 26 2017

UTZ001>011-023>025-261200-

NORTHERN UTAH

CITY           SKY/WX    TMP DP  RH WIND       PRES   REMARKS
BRIGHAM CITY     N/A     36  34  91 CALM      30.02F
HILL AFB       PTCLDY    35  32  87 E10       30.01F WCI  28
LOGAN          CLEAR     36  31  82 CALM      30.02S
OGDEN          CLEAR     33  32  96 S7        30.01F WCI  27
SALT LAKE CITY PTCLDY    36  35  96 SE3       30.02S FOG
WENDOVER       CLEAR     35  28  75 CALM      30.01S
HEBER CITY     CLEAR     28  27  93 CALM      30.00S

$$

UTZ011>015-024>027-261200-

CENTRAL/NORTHEAST UTAH

CITY           SKY/WX    TMP DP  RH WIND       PRES   REMARKS
PROVO AIRPORT  CLOUDY    40  37  89 CALM      30.03S
MOAB/CANYONLAN CLEAR     40  33  76 W10       29.88S WCI  33
DELTA          PTCLDY    34  32  93 SE8       30.02F WCI  27
PRICE          CLEAR     38  25  59 NW17G26   29.94R WCI  28
RICHFIELD      CLEAR     30  30 100 W2        30.05S
ROOSEVELT      CLOUDY    41  32  70 W6        29.94S
VERNAL         CLOUDY    42  28  57 NE3       29.93R

$$

UTZ013>016-019>022-027-261200-

SOUTHERN UTAH

CITY           SKY/WX    TMP DP  RH WIND       PRES   REMARKS
BRYCE CANYON   CLEAR     28  21  75 NW10      30.01R WCI  19
CEDAR CITY     FOG       30  29  96 CALM      30.03R VSB 1/2
MILFORD        PTCLDY    30  29  96 SE6       30.03S FOG     WCI  24
ST GEORGE      SUNNY     42  36  79 S5        30.02R
HANKSVILLE     CLEAR     37  30  75 W3        29.95R
KANAB          CLEAR     30  30 100 CALM      30.05R
BLANDING       CLEAR     32  32  99 NE6       29.99S WCI  27

$$

REGIONAL REPORTS     COLORADO/ARIZONA

CITY           SKY/WX    TMP DP  RH WIND       PRES   REMARKS
CRAIG, CO      CLOUDY    38  32  79 W9        29.93R WCI  31
GRAND JUNCTION CLOUDY    47  37  68 N7        29.87S
RIFLE, CO      LGT RAIN  41  38  89 W5        29.89R
MONTROSE, CO   LGT RAIN  39  38  96 SE9       29.92R WCI  33
CORTEZ, CO     CLOUDY    39  38  96 CALM      29.93S
COLORADO CITY    N/A     32  32 100 CALM      30.04S
PAGE, AZ       CLEAR     47  34  60 W6        29.93S
GRAND CANYON   CLEAR     26  26 100 CALM      30.01F
KINGMAN, AZ    CLEAR     43  21  41 E7        29.98S
FLAGSTAFF, AZ  PTCLDY    27  24  89 S5        29.97F WCI  22

$$

REGIONAL REPORTS    NEVADA/IDAHO/WYOMING

CITY           SKY/WX    TMP DP  RH WIND       PRES   REMARKS
LAS VEGAS, NV  PTCLDY    57  37  47 N3        29.96S
ELY, NY        CLEAR     26  22  84 S6        30.03S WCI  19
ELKO, NV       CLEAR     30  25  81 CALM      30.00F
POCATELLO, ID  CLEAR     30  26  85 CALM      29.99F
BURLEY, ID     CLEAR     34  27  75 SW12      29.98F WCI  25
FORT BRIDGER,    N/A     31  29  94 SW9       30.02S WCI  22
EVANSTON, WY   CLEAR     26  23  88 SW9       30.00S WCI  17
ROCK SPRINGS,  CLOUDY    33  28  81 SW12      29.97R WCI  24

$$




USA.gov is the U.S. government's official web portal to all federal, state and local government web resources and services.